Lewiston, WA

8:15 PM PDT on October 22, 2017 (GMT -0700)
Lewiston-Nez Perce County

Weather History for KLWS - April, 2013

Change the Weather History Date:

Thursday, April 4, 2013

  Actual Average Record
Temperature  
Mean Temperature 54 °F 49 °F  
Max Temperature 60 °F 60 °F 85 °F (1944)
Min Temperature 47 °F 39 °F 28 °F (2001)
Degree Days  
Heating Degree Days 11 16  
Month to date heating degree days 36 64  
Since 1 July heating degree days 4026 4531  
Cooling Degree Days 0 0  
Month to date cooling degree days 0 0  
Year to date cooling degree days 0 0  
Growing Degree Days 4 (Base 50)    
Moisture  
Dew Point 44 °F    
Average Humidity 70    
Maximum Humidity 83    
Minimum Humidity 57    
Precipitation  
Precipitation 0.10 in 0.04 in 0.46 in (2011)
Month to date precipitation 0.10 0.16  
Year to date precipitation 1.95 3.17  
Snow  
Snow 0.00 in 0.00 in 1.00 in (1947)
Month to date snowfall 0.0 0.0  
Since 1 July snowfall 2.6 10.5  
Snow Depth 0.00 in    
Sea Level Pressure  
Sea Level Pressure 29.85 in    
Wind  
Wind Speed 6 mph (East)    
Max Wind Speed 28 mph    
Max Gust Speed 37 mph    
Visibility 10 miles    
Events Rain    
T = Trace of Precipitation, MM = Missing Value Source: NWS Daily Summary

Daily Weather History Graph

Daily Weather History Graph

Search for Another Location

Airport or City:

Trip Planner

Search our weather history database for the weather conditions in past years. The results will help you decide how hot, cold, wet, or windy it might be!

Date:

Astronomy

Apr. 04, 2013 Rise Set
Actual Time 6:21 AM PDT 7:21 PM PDT
Civil Twilight 5:50 AM PDT 7:52 PM PDT
Nautical Twilight 5:14 AM PDT 8:28 PM PDT
Astronomical Twilight 4:35 AM PDT 9:07 PM PDT
Moon 3:10 AM PDT (4/4) 1:26 PM PDT (4/4)
Length of Visible Light 14h 01m
Length of Day
13h 00m
Waning Crescent, 32% of the Moon is Illuminated
Apr 4
Waning Crescent
Apr 10
New
Apr 18
First Quarter
Apr 25
Full
May 2
Last Quarter

Hourly Weather History & Observations

Time (PDT) Temp. Dew Point Humidity Pressure Visibility Wind Dir Wind Speed Gust Speed Precip Events Conditions
12:56 AM 50.0 °F 37.9 °F 63% 29.99 in 10.0 mi Calm Calm - N/A   Clear
1:56 AM 50.0 °F 37.9 °F 63% 29.98 in 10.0 mi SE 3.5 mph - N/A   Clear
2:56 AM 48.9 °F 39.0 °F 69% 29.96 in 10.0 mi SE 5.8 mph - N/A   Clear
3:56 AM 51.1 °F 39.9 °F 66% 29.95 in 10.0 mi East 9.2 mph - N/A   Clear
4:56 AM 50.0 °F 39.9 °F 68% 29.93 in 10.0 mi East 8.1 mph - N/A   Clear
5:56 AM 50.0 °F 39.9 °F 68% 29.91 in 10.0 mi ESE 6.9 mph - N/A   Clear
6:56 AM 48.9 °F 39.9 °F 71% 29.90 in 10.0 mi ESE 4.6 mph - N/A   Clear
7:56 AM 52.0 °F 39.9 °F 63% 29.88 in 10.0 mi ENE 9.2 mph - N/A   Clear
8:56 AM 55.0 °F 41.0 °F 59% 29.86 in 10.0 mi ENE 9.2 mph - N/A   Partly Cloudy
9:56 AM 54.0 °F 43.0 °F 66% 29.86 in 10.0 mi Calm Calm - N/A   Overcast
10:56 AM 55.9 °F 44.1 °F 64% 29.83 in 10.0 mi NNW 5.8 mph - 0.00 in   Overcast
11:56 AM 55.9 °F 44.1 °F 64% 29.81 in 10.0 mi SW 5.8 mph - N/A   Mostly Cloudy
12:56 PM 57.9 °F 44.1 °F 60% 29.79 in 10.0 mi WNW 4.6 mph - N/A   Overcast
1:56 PM 57.9 °F 44.1 °F 60% 29.80 in 10.0 mi Variable 3.5 mph - N/A   Overcast
2:56 PM 59.0 °F 44.1 °F 58% 29.77 in 10.0 mi NNE 5.8 mph - 0.00 in   Mostly Cloudy
3:56 PM 57.0 °F 46.0 °F 67% 29.76 in 9.0 mi North 3.5 mph - 0.00 in Rain Light Rain
4:56 PM 57.9 °F 48.0 °F 70% 29.78 in 10.0 mi South 3.5 mph - 0.00 in Rain Light Rain
5:56 PM 59.0 °F 48.0 °F 67% 29.77 in 10.0 mi East 4.6 mph - 0.00 in   Overcast
6:56 PM 57.9 °F 48.0 °F 70% 29.73 in 10.0 mi East 8.1 mph - N/A   Partly Cloudy
7:56 PM 55.0 °F 48.9 °F 80% 29.72 in 10.0 mi East 6.9 mph - N/A   Partly Cloudy
8:56 PM 55.9 °F 48.9 °F 77% 29.80 in 10.0 mi WNW 24.2 mph 36.8 mph 0.00 in Rain Light Rain
9:56 PM 53.1 °F 46.0 °F 77% 29.84 in 10.0 mi West 3.5 mph - 0.10 in Rain Light Rain
10:56 PM 51.1 °F 46.9 °F 86% 29.84 in 10.0 mi ESE 5.8 mph - 0.00 in   Overcast
11:56 PM 51.1 °F 46.9 °F 86% 29.85 in 10.0 mi ESE 3.5 mph - N/A   Mostly Cloudy